When you browse on this site, cookies collect data to enhance your experience and personalize the content and advertising you see.
Visit our Privacy Policy to learn more. By continuing to use the site, you agree to this use of cookies and data.
  • In Spain
  • List of Countries
  • For 7 days
  • Water Temperature
  • Weather Map
  • Weather Widgets
  • user-avatar
    Login

    Hourly Weather Popovka 1-ya

    Today, 23 August, Friday

    Time Temperature Precipitation Wind Pressure Humidity
    00:00 +15°C° 0 mm 5 mps 746 mmHg 87%
    01:00 +14°C° 0 mm 4 mps 746 mmHg 88%
    02:00 +14°C° 0 mm 4 mps 747 mmHg 87%
    03:00 +13°C° 0 mm 4 mps 747 mmHg 88%
    04:00 +13°C° 0 mm 4 mps 747 mmHg 88%
    05:00 +13°C° 0 mm 4 mps 747 mmHg 89%
    06:00 +14°C° 0 mm 4 mps 747 mmHg 85%
    07:00 +15°C° 0 mm 4 mps 747 mmHg 82%
    08:00 +16°C° 0 mm 5 mps 748 mmHg 79%
    09:00 +17°C° 0 mm 5 mps 748 mmHg 74%
    10:00 +19°C° 0 mm 5 mps 747 mmHg 69%
    11:00 +21°C° 0 mm 5 mps 747 mmHg 65%
    12:00 +21°C° 0 mm 5 mps 747 mmHg 63%
    13:00 +21°C° 0 mm 4 mps 747 mmHg 61%
    14:00 +22°C° 0 mm 4 mps 747 mmHg 59%
    15:00 +21°C° 0 mm 4 mps 747 mmHg 63%
    16:00 +21°C° 0 mm 3 mps 747 mmHg 67%
    17:00 +20°C° 0 mm 3 mps 747 mmHg 71%
    18:00 +19°C° 0 mm 2 mps 747 mmHg 75%
    19:00 +17°C° 0 mm 2 mps 747 mmHg 79%
    20:00 +16°C° 0 mm 2 mps 747 mmHg 83%
    21:00 +15°C° 0 mm 2 mps 747 mmHg 84%
    22:00 +15°C° 0 mm 2 mps 747 mmHg 86%
    23:00 +14°C° 0 mm 2 mps 747 mmHg 88%

    Tomorrow, 24 August, Saturday

    Time Temperature Precipitation Wind Pressure Humidity
    00:00 +14°C° 0 mm 2 mps 747 mmHg 88%
    01:00 +14°C° 0 mm 2 mps 747 mmHg 89%
    02:00 +13°C° 0 mm 2 mps 747 mmHg 89%
    03:00 +13°C° 0 mm 2 mps 747 mmHg 89%
    04:00 +13°C° 0 mm 2 mps 747 mmHg 89%
    05:00 +13°C° 0 mm 1 mps 746 mmHg 89%
    06:00 +14°C° 0 mm 1 mps 747 mmHg 83%
    07:00 +16°C° 0 mm 1 mps 747 mmHg 77%
    08:00 +19°C° 0 mm 1 mps 747 mmHg 70%
    09:00 +20°C° 0 mm 1 mps 747 mmHg 64%
    10:00 +22°C° 0 mm 1 mps 746 mmHg 58%
    11:00 +23°C° 0 mm 1 mps 746 mmHg 52%
    12:00 +23°C° 0 mm 1 mps 746 mmHg 51%
    13:00 +24°C° 0 mm 2 mps 746 mmHg 49%
    14:00 +24°C° 0 mm 2 mps 746 mmHg 48%
    15:00 +23°C° 0 mm 2 mps 745 mmHg 53%
    16:00 +23°C° 0 mm 2 mps 745 mmHg 57%
    17:00 +21°C° 0 mm 2 mps 744 mmHg 62%
    18:00 +20°C° 0 mm 2 mps 745 mmHg 66%
    19:00 +19°C° 0 mm 1 mps 745 mmHg 70%
    20:00 +16°C° 0 mm 1 mps 745 mmHg 74%
    21:00 +16°C° 0 mm 2 mps 745 mmHg 76%
    22:00 +16°C° 0 mm 2 mps 745 mmHg 78%
    23:00 +15°C° 0 mm 2 mps 745 mmHg 81%

    Day after tomorrow, 25 August, Sunday

    Time Temperature Precipitation Wind Pressure Humidity
    00:00 +15°C° 0 mm 2 mps 745 mmHg 84%
    01:00 +15°C° 0 mm 2 mps 744 mmHg 87%
    02:00 +14°C° 0 mm 2 mps 744 mmHg 90%
    03:00 +14°C° 0 mm 2 mps 744 mmHg 92%
    04:00 +14°C° 0 mm 2 mps 744 mmHg 93%
    05:00 +14°C° 0 mm 2 mps 744 mmHg 94%
    06:00 +15°C° 0 mm 2 mps 745 mmHg 89%
    07:00 +17°C° 0 mm 2 mps 745 mmHg 84%
    08:00 +18°C° 0 mm 3 mps 745 mmHg 80%
    09:00 +19°C° 0 mm 3 mps 745 mmHg 74%
    10:00 +21°C° 0 mm 3 mps 745 mmHg 68%
    11:00 +22°C° 0 mm 4 mps 745 mmHg 62%
    12:00 +22°C° 0 mm 4 mps 745 mmHg 59%
    13:00 +22°C° 0 mm 4 mps 745 mmHg 56%
    14:00 +22°C° 0 mm 4 mps 746 mmHg 54%
    15:00 +21°C° 0 mm 4 mps 746 mmHg 58%
    16:00 +21°C° 0 mm 3 mps 745 mmHg 62%
    17:00 +20°C° 0 mm 3 mps 745 mmHg 67%
    18:00 +19°C° 0 mm 3 mps 746 mmHg 71%
    19:00 +17°C° 0 mm 2 mps 746 mmHg 76%
    20:00 +16°C° 0 mm 2 mps 746 mmHg 80%
    21:00 +15°C° 0 mm 2 mps 747 mmHg 82%
    22:00 +14°C° 0 mm 2 mps 747 mmHg 83%
    23:00 +14°C° 0 mm 2 mps 747 mmHg 84%

    26 August, Monday

    Time Temperature Precipitation Wind Pressure Humidity
    00:00 +13°C° 0 mm 2 mps 747 mmHg 86%
    01:00 +13°C° 0 mm 2 mps 747 mmHg 89%
    02:00 +13°C° 0 mm 2 mps 748 mmHg 91%
    03:00 +12°C° 0 mm 2 mps 748 mmHg 91%
    04:00 +12°C° 0 mm 2 mps 748 mmHg 91%
    05:00 +12°C° 0 mm 1 mps 748 mmHg 91%
    06:00 +13°C° 0 mm 1 mps 748 mmHg 84%
    07:00 +15°C° 0 mm 2 mps 748 mmHg 78%
    08:00 +17°C° 0 mm 2 mps 748 mmHg 71%
    09:00 +19°C° 0 mm 1 mps 748 mmHg 66%
    10:00 +20°C° 0 mm 1 mps 748 mmHg 60%
    11:00 +21°C° 0 mm 1 mps 748 mmHg 54%
    12:00 +22°C° 0 mm 1 mps 748 mmHg 52%
    13:00 +22°C° 0 mm 1 mps 748 mmHg 50%
    14:00 +23°C° 0 mm 1 mps 748 mmHg 47%
    15:00 +21°C° 0 mm 0 mps 747 mmHg 51%
    16:00 +20°C° 0 mm 0 mps 747 mmHg 54%
    17:00 +20°C° 0 mm 0 mps 746 mmHg 58%
    18:00 +18°C° 0 mm 0 mps 746 mmHg 61%
    19:00 +16°C° 0 mm 0 mps 746 mmHg 64%
    20:00 +15°C° 0 mm 0 mps 746 mmHg 67%
    21:00 +15°C° 0 mm 1 mps 746 mmHg 68%
    22:00 +15°C° 0 mm 1 mps 746 mmHg 69%
    23:00 +15°C° 0 mm 1 mps 746 mmHg 70%

    27 August, Tuesday

    Time Temperature Precipitation Wind Pressure Humidity
    00:00 +14°C° 0 mm 1 mps 746 mmHg 72%
    01:00 +14°C° 0 mm 1 mps 745 mmHg 73%
    02:00 +14°C° 0 mm 2 mps 745 mmHg 74%
    03:00 +13°C° 0 mm 2 mps 745 mmHg 75%
    04:00 +13°C° 0 mm 2 mps 745 mmHg 77%
    05:00 +13°C° 0 mm 2 mps 744 mmHg 78%
    06:00 +14°C° 0 mm 2 mps 744 mmHg 76%
    07:00 +14°C° 0 mm 3 mps 744 mmHg 75%
    08:00 +17°C° 0 mm 3 mps 744 mmHg 73%
    09:00 +18°C° 0 mm 3 mps 744 mmHg 69%
    10:00 +20°C° 0 mm 4 mps 744 mmHg 66%
    11:00 +22°C° 0 mm 4 mps 744 mmHg 63%
    12:00 +22°C° 0 mm 4 mps 744 mmHg 63%
    13:00 +22°C° 0 mm 5 mps 743 mmHg 62%
    14:00 +23°C° 0 mm 5 mps 743 mmHg 62%
    15:00 +22°C° 0 mm 4 mps 743 mmHg 66%
    16:00 +22°C° 0 mm 4 mps 742 mmHg 70%
    17:00 +21°C° 0 mm 3 mps 742 mmHg 74%
    18:00 +20°C° 0 mm 3 mps 742 mmHg 78%
    19:00 +18°C° 0 mm 3 mps 742 mmHg 82%
    20:00 +17°C° 0 mm 3 mps 742 mmHg 87%
    21:00 +16°C° 0 mm 3 mps 742 mmHg 89%
    22:00 +16°C° 0 mm 3 mps 743 mmHg 90%
    23:00 +14°C° 0 mm 3 mps 743 mmHg 92%

    28 August, Wednesday

    Time Temperature Precipitation Wind Pressure Humidity
    00:00 +15°C° 0 mm 2 mps 743 mmHg 93%
    01:00 +14°C° 0 mm 2 mps 743 mmHg 93%
    02:00 +14°C° 0 mm 2 mps 743 mmHg 94%
    03:00 +14°C° 0 mm 2 mps 743 mmHg 93%
    04:00 +13°C° 0 mm 2 mps 743 mmHg 93%
    05:00 +13°C° 0 mm 2 mps 743 mmHg 92%
    06:00 +14°C° 0 mm 2 mps 744 mmHg 86%
    07:00 +16°C° 0 mm 2 mps 744 mmHg 79%
    08:00 +17°C° 0 mm 3 mps 744 mmHg 73%
    09:00 +18°C° 0 mm 3 mps 744 mmHg 68%
    10:00 +19°C° 0 mm 3 mps 745 mmHg 64%
    11:00 +20°C° 0 mm 4 mps 745 mmHg 59%
    12:00 +20°C° 0 mm 4 mps 745 mmHg 59%
    13:00 +20°C° 0 mm 4 mps 744 mmHg 59%
    14:00 +20°C° 0 mm 4 mps 744 mmHg 58%
    15:00 +20°C° 0 mm 4 mps 744 mmHg 60%
    16:00 +19°C° 0 mm 3 mps 744 mmHg 62%
    17:00 +18°C° 0 mm 3 mps 744 mmHg 65%
    18:00 +17°C° 0 mm 3 mps 744 mmHg 67%
    19:00 +14°C° 0 mm 3 mps 745 mmHg 69%
    20:00 +13°C° 0 mm 2 mps 745 mmHg 71%
    21:00 +13°C° 0 mm 2 mps 745 mmHg 70%
    22:00 +12°C° 0 mm 2 mps 745 mmHg 70%
    23:00 +10°C° 0 mm 2 mps 746 mmHg 70%
    Show more